Regional Weather Roundup
Issued by NWS Grand Forks, ND

Home | Current Version | Previous Version | Text Only | Print | Product List | Glossary Off
Versions: 1 2 3 4 5 6 7 8 9 10 11 12 13 14 15 16 17 18 19 20 21 22 23 24 25 26 27 28 29 30 31 32 33 34 35 36 37 38 39 40 41 42 43 44 45 46 47 48 49 50

223
ASUS43 KFGF 221331
RWRFGF
PRAIRIE TO PINES  WEATHER ROUNDUP
NATIONAL WEATHER SERVICE EASTERN NORTH DAKOTA/GRAND FORKS ND
700 AM CST WED NOV 22 2017

 **SATELLITE DATA USED TO AUGMENT SKY COVER AT AUTOMATED STATIONS**
 *****  WEATHER ACROSS EASTERN NORTH DAKOTA  *****

CITY           SKY/WX    TMP DP  RH WIND       PRES   REMARKS
GRAND FORKS    CLOUDY    15  10  80 S14       30.15F WCI   0
GRAND FRKS AFB CLOUDY    14   8  76 SW12      30.13F WCI   1
GRAND FRKS NWS   N/A     14 N/A N/A S16         N/A  WCI  -2
DEVILS LAKE    CLOUDY    15   9  76 S9        30.05F WCI   3
FARGO          FAIR      13   8  81 S12       30.21F WCI  -1
WAHPETON ARPT  NOT AVBL
$$

 ***** WEATHER ACROSS CENTRAL AND WESTERN NORTH DAKOTA  *****

CITY           SKY/WX    TMP DP  RH WIND       PRES   REMARKS
BISMARCK       CLOUDY    22  15  75 SE7       30.02F WCI  13
MINOT          CLOUDY    20  11  68 SE6       29.92F WCI  12
JAMESTOWN      FAIR      13   8  81 S9        30.09F WCI   1
MINOT AFB      FLURRIES  19  11  70 SE7       29.91F WCI  10
GARRISON         N/A     21  14  74 S10       29.92F WCI  10
WILLISTON      CLOUDY    26  15  63 S5        29.86F WCI  20
DICKINSON      FAIR      32  21  64 S15       29.88F WCI  22
HETTINGER      MOCLDY    28  18  66 S7        29.96F WCI  21
$$

 *****  OTHER AIRPORT OBSERVATIONS IN OUR AREA  *****

CITY           SKY/WX    TMP DP  RH WIND       PRES   REMARKS
WALHALLA       FAIR      14   9  79 S6        30.07F WCI   5
GRAFTON AIRPOR CLOUDY    12   9  85 S12       30.15S WCI  -2
VALLEY CITY AR PTSUNNY   10   9  92 S9        30.14F WCI  -2
CANDO          CLOUDY    16  10  79 S14       30.01F WCI   1
CAVALIER APRT  PTSUNNY   12   7  79 S9        30.10F WCI   0
GWINNER          N/A     12   9  85 S9        30.16F WCI   0
SHEYENNE NWR     N/A     10   7  86 S5        29.95S WCI   2
ROLLA          LGT SNOW  12   9  85 S13       29.95F WCI  -3
 ***** THE ABOVE OBSERVATIONS ARE NON NWS ARE NOT QUALITY
       CONTROLLED AND MAY MIS-REPORT RAIN FOR SNOW...
$$

  *****  WEATHER ACROSS NORTHERN MINNESOTA  *****

CITY           SKY/WX    TMP DP  RH WIND       PRES   REMARKS
FLAG ISLAND    FAIR      10   7  85 S6        30.10F WCI   1
WARROAD        FAIR       9   5  85 S3        30.12F
ROSEAU         CLOUDY    12   7  79 S9        30.11F WCI   0
HALLOCK        CLOUDY    12   9  85 S9        30.12F WCI   0
THF RVR FALLS  CLOUDY     9   6  88 S9        30.15F WCI  -4
BAUDETTE       FAIR       7   4  87 S7        30.14F WCI  -5
WASKISH        FAIR       7   5  92 S3        30.15F
CROOKSTON      CLOUDY    12   9  85 S12       30.17F WCI  -2
STEPHEN NDAWN    N/A     12   7  79 S7          N/A  WCI   2
GREENBUSH NDAW   N/A     10   7  85 SW10        N/A  WCI  -3
$$
  *****  WEATHER ACROSS CENTRAL AND WEST MINNESOTA  *****

CITY           SKY/WX    TMP DP  RH WIND       PRES   REMARKS
FOSSTON        FAIR       7   3  85 S10       30.16F WCI  -8
BEMIDJI        FAIR       7   4  86 CALM      30.16F
PARK RAPIDS    FAIR       9   5  84 S7        30.18F WCI  -2
ELBOW LAKE     FAIR       9   6  90 S6        30.24F WCI  -1
WADENA         FAIR       7   3  85 S3        30.20F
DETROIT LAKES  FAIR      14  10  85 S9        30.20S WCI   2
MOORHEAD       FAIR      10   7  85 CALM      30.21F
FERGUS FALLS   FAIR      10   7  85 S7        30.26F WCI   0
MORRIS MN      FAIR       9   7  92 SE7       30.24F WCI  -3
STAPLES        FAIR       7   5  92 S5        30.22F WCI  -2
$$
  *****  WEATHER ELSEWHERE ACROSS MINNESOTA  *****

CITY           SKY/WX    TMP DP  RH WIND       PRES   REMARKS
DULUTH         FAIR       9   6  88 W7        30.20F WCI  -2
INTRNTL FALLS    N/A      3  -2  79 CALM      30.18S
ELY            FAIR       7   5  92 SW5       30.18S WCI  -2
CLOQUET        FAIR       9   7  92 W3        30.23R
WHEATON        FAIR      12   9  85 S9        30.25F WCI   0
BRAINERD       FAIR      10   6  84 S5        30.25S WCI   2
HIBBING        FAIR       2  -1  88 CALM      30.20S
ALEXANDRIA     FAIR      12   9  87 S8        30.23F WCI   0
SAINT CLOUD    FAIR      11   9  92 CALM      30.29S
MINNEAPOLIS    FAIR      16  11  80 SW3       30.32F
$$

  *****  WEATHER ACROSS SOUTH DAKOTA  *****

CITY           SKY/WX    TMP DP  RH WIND       PRES   REMARKS
SIOUX FALLS    FAIR      14   8  77 S6        30.29S WCI   5
BROOKINGS      FAIR      12   7  80 S8        30.24F WCI   0
WATERTOWN      FAIR      13  10  88 S9        30.18F WCI   1
HURON          FAIR      14   9  80 SE12      30.21F WCI   0
SISSETON         N/A     13   8  81 S7        30.21F WCI   3
ABERDEEN       FAIR      12   8  84 S10       30.18F WCI  -1
MITCHELL       FAIR      14  10  84 SE8       30.25F WCI   3
PIERRE         MOCLDY    20  14  77 SE10      30.10F WCI   9
MOBRIDGE       MOCLDY    23  15  71 S16       30.03F WCI  10
RAPID CITY     FAIR      32  23  69 SW5       30.04S
$$

  *****  SOME WEATHER IN NEARBY STATES *****

CITY           SKY/WX    TMP DP  RH WIND       PRES   REMARKS
GLASGOW MT     FAIR      28  23  81 E8        29.80F WCI  20
GREAT FALLS MT FAIR      55  38  52 SW23G32   29.97R
CHEYENNE WY    FAIR      48  35  60 W30G39    30.20F
SCOTTSBLUFF NE FAIR      28  23  81 CALM      30.14F
OMAHA NE       FAIR      16   9  74 CALM      30.40R
DES MOINES IA  FAIR      17  10  74 W3        30.39S
DAVENPORT IA   FAIR      16  12  84 W3        30.39S
CHICAGO IL     FAIR      23  15  71 NW8       30.33R WCI  14
EAU CLAIRE WI  FAIR      11   8  88 S3        30.32R
LA CROSSE WI   FAIR      17  10  74 N5        30.36R WCI  10
$$

  *****  SOME NATIONAL WEATHER *****

CITY           SKY/WX    TMP DP  RH WIND       PRES   REMARKS
LA GUARDIA NY  RAIN      54  50  86 SW5       29.89F FOG
RALEIGH NC     FAIR      51  51 100 CALM      29.97R
ATLANTA GA     FAIR      48  44  86 NW10      30.04R
NEW ORLEANS LA MOCLDY    59  48  67 NE10G16   30.09R
OKLAHOMA CITY  FAIR      29  15  56 N7        30.42R WCI  22
ALBUQUERQUE NM FAIR      38  27  64 N9        30.40R
SALT LAKE CITY FAIR      45  39  79 SE9       30.39S
LOS ANGELES CA FAIR      68  35  29 NE6       30.02S
BOISE ID       CLOUDY    50  49  96 CALM      30.26R
SEATTLE WA     CLOUDY    58  57  97 S5        29.96R
$$

*** WEATHER ACROSS MANITOBA...SASKATCHEWAN AND ONTARIO ***
                ***ONTARIO***

CITY           SKY/WX    TMP DP  RH WIND       PRES   REMARKS
GERALDTON      CLOUDY    16  14  93 W6        30.06R WCI   7
THUNDER BAY    PTCLDY    10   9  92 NW2       30.19F
SIOUX LOOKOUT  CRYSTALS  12   9  85 W8        30.10R WCI   1
TORONTO        CLOUDY    32  18  55 NW20      30.11R WCI  20
BIG TROUT LK   FLURRIES  10   7  85 W10       29.93R WCI  -3
PICKLE LAKE    FLURRIES  10   9  92 SW14      29.99F WCI  -5
DRYDEN         PTCLDY     9   7  92 SW9       30.10F WCI  -5
KENORA         FLURRIES  10   7  85 SW8       30.07F WCI  -1
$$
                *** MANITOBA***

CITY           SKY/WX    TMP DP  RH WIND       PRES   REMARKS
BRANDON        LGT SNOW   9   3  78 E3        29.97F
DAUPHIN        CLOUDY     9   5  85 S2        29.97F
ISLAND LAKE    MOCLDY     7   3  85 SW7       29.96F WCI  -5
PILOT MOUND      N/A     12   7  79 S10         N/A  WCI  -1
THE PAS        CLOUDY     3  -2  78 S3        29.90F
THOMPSON       MOCLDY     7   3  85 SW6       29.85F WCI  -3
WINNIPEG       CLOUDY    10   5  79 S10       30.08F WCI  -3
LYNN LAKE      FLURRIES   5   3  92 W10       29.75F WCI -10
CHURCHILL      FLURRIES  10   5  79 NW15G23   29.69F WCI  -6
$$
                ***SASKATCHEWAN***

CITY           SKY/WX    TMP DP  RH WIND       PRES   REMARKS
ESTEVAN        LGTSLEET  21  12  68 SE8       29.82F WCI  12
KINDERSLEY     PTCLDY     5   1  85 N15       29.79R WCI -13
LLOYDMINSTER   CLOUDY     7   3  85 S5        29.83R WCI  -2
PRINCE ALBERT  CRYSTALS   3  -2  78 NW2       29.91S
REGINA         FRZ RAIN  16  12  86 SE10      29.81F WCI   3
YORKTON        CLOUDY     7   3  85 SE6       29.89F WCI  -3
N. BATTLEFORD  FLURRIES   5   0  78 S3        29.89R
LA RONGE       FLURRIES   3   0  85 SW3       29.87F
SASKATOON      FLURRIES   9   3  78 NE8       29.86S WCI  -4
SWIFT CURRENT  CLEAR     30  27  86 W15       29.71R WCI  19
$$
NOTE: THESE ARE AUTOMATED STATIONS WITH LIMITED QUALITY CONTROL
      "FAIR" INDICATES FEW OR NO CLOUDS BELOW 12,000 FEET WITH NO
      SIGNIFICANT WEATHER AND/OR OBSTRUCTIONS TO VISIBILITY.
      SKY/WX - SKY CONDITION AND SIGNIFICANT WEATHER.
      TMP - AIR TEMPERATURE.    DP   - DEWPOINT TEMPERATURE.
      RH  - RELATIVE HUMIDITY.  PRES - PRESSURE.
      HX  - HEAT INDEX.         WCI  - WIND CHILL INDEX.
$




USA.gov is the U.S. government's official web portal to all federal, state and local government web resources and services.